Location: Long Geng
(2.6167°N, 114.1333°E)
Time: 17:23:49
(UTC+00:00)

SPELTRA - Pass Details

Date: 14 May 2021
Orbit: 569 x 26565 km, 7.8° (Epoch: 16 June)

Event Time Altitude Azimuth Distance (km) Brightness Sun altitude
Rises 12:08:22 0° 270° (W) 7,184 9.1 -24.6°
Reaches altitude 10° 12:15:23 10° 263° (W) 4,126 7.5 -26.2°
Enters shadow 12:22:24 36° 204° (SSW) 1,242 4.0 -27.9°
